Location: Caoba
(9.7667°N, 67.4833°W)
Time: 04:11:27
(UTC+00:00)

SPOT 1/Viking Rocket - Pass Details

Date: 08 September 2024
Orbit: 773 x 792 km, 98.3° (Epoch: 09 October)

Event Time Altitude Azimuth Distance (km) Brightness Sun altitude
Exits shadow 23:37:18 23° 124° (SE) 1,645 4.7 -16.2°
Maximum altitude 23:39:47 35° 76° (ENE) 1,259 4.1 -16.9°
Drops below altitude 10° 23:44:26 10° 12° (NNE) 2,342 6.0 -18.0°
Sets 23:46:55 0° 3° (N) 3,267 6.8 -18.6°
